TimeHST,TemperatureF,Dew PointF,Humidity,Sea Level PressureIn,VisibilityMPH,Wind Direction,Wind SpeedMPH,Gust SpeedMPH,PrecipitationIn,Events,Conditions,WindDirDegrees,DateUTC
12:45 AM,73.4,69.8,88,30.13,8.0,NE,19.6,25.3,0.00,,Overcast,50,2014-04-02 10:45:00
12:53 AM,73.0,70.0,90,30.13,8.0,NE,19.6,-,0.00,,Overcast,50,2014-04-02 10:53:00
2:39 AM,73.4,69.8,88,30.11,9.0,ENE,19.6,-,0.00,,Overcast,60,2014-04-02 12:39:00
2:53 AM,73.0,69.1,87,30.10,9.0,NE,19.6,-,0.00,,Overcast,50,2014-04-02 12:53:00
3:53 AM,73.0,69.1,87,30.09,9.0,ENE,18.4,-,N/A,,Overcast,60,2014-04-02 13:53:00
4:53 AM,73.0,70.0,90,30.10,9.0,ENE,15.0,-,0.00,,Overcast,60,2014-04-02 14:53:00
5:36 AM,73.4,69.8,88,30.12,10.0,ENE,18.4,-,0.00,,Overcast,60,2014-04-02 15:36:00
5:53 AM,73.0,69.1,87,30.12,10.0,ENE,18.4,-,0.00,,Overcast,60,2014-04-02 15:53:00
6:53 AM,73.0,69.1,87,30.13,9.0,ENE,16.1,-,N/A,,Overcast,60,2014-04-02 16:53:00
7:28 AM,73.4,69.8,88,30.14,8.0,ENE,17.3,-,N/A,,Overcast,60,2014-04-02 17:28:00
7:53 AM,75.0,70.0,84,30.14,9.0,ENE,15.0,-,N/A,,Overcast,60,2014-04-02 17:53:00
8:53 AM,75.9,71.1,85,30.16,7.0,NE,16.1,-,0.00,,Mostly Cloudy,50,2014-04-02 18:53:00
9:41 AM,75.2,71.6,89,30.17,9.0,ENE,16.1,-,0.00,,Mostly Cloudy,60,2014-04-02 19:41:00
9:53 AM,77.0,70.0,79,30.16,10.0,ENE,16.1,-,0.00,,Mostly Cloudy,60,2014-04-02 19:53:00
10:32 AM,75.2,69.8,83,30.17,8.0,ENE,13.8,-,0.00,Rain,Light Rain,60,2014-04-02 20:32:00
10:51 AM,75.2,71.6,89,30.17,10.0,ENE,17.3,-,0.00,,Overcast,60,2014-04-02 20:51:00
10:53 AM,75.9,71.1,85,30.16,10.0,ENE,16.1,-,0.00,,Overcast,60,2014-04-02 20:53:00
11:31 AM,78.8,69.8,74,30.17,10.0,ENE,16.1,-,N/A,,Mostly Cloudy,60,2014-04-02 21:31:00
11:53 AM,78.1,70.0,76,30.16,10.0,ENE,17.3,-,N/A,,Mostly Cloudy,60,2014-04-02 21:53:00
12:00 PM,78.8,69.8,74,30.16,10.0,ENE,17.3,-,N/A,,Mostly Cloudy,60,2014-04-02 22:00:00
12:12 PM,77.0,69.8,78,30.16,9.0,ENE,15.0,23.0,0.00,Rain,Light Rain,60,2014-04-02 22:12:00
12:53 PM,78.1,70.0,76,30.14,10.0,ENE,20.7,25.3,0.00,,Overcast,60,2014-04-02 22:53:00
1:02 PM,78.8,69.8,74,30.15,10.0,ENE,20.7,-,N/A,,Overcast,60,2014-04-02 23:02:00
1:51 PM,78.8,71.6,78,30.14,10.0,NE,17.3,-,N/A,,Overcast,50,2014-04-02 23:51:00
1:53 PM,78.1,70.0,76,30.13,10.0,NE,23.0,32.2,N/A,,Overcast,50,2014-04-02 23:53:00
2:31 PM,73.4,69.8,88,30.13,2.5,NE,16.1,26.5,0.00,Rain,Rain,40,2014-04-03 00:31:00
2:38 PM,73.4,71.6,94,30.13,3.0,NE,19.6,25.3,0.02,Rain,Light Rain,50,2014-04-03 00:38:00
2:53 PM,73.9,71.1,91,30.12,9.0,NE,18.4,-,0.02,,Overcast,50,2014-04-03 00:53:00
3:16 PM,73.4,71.6,94,30.12,2.5,NE,15.0,-,0.00,Rain,Light Rain,40,2014-04-03 01:16:00
3:32 PM,73.4,71.6,94,30.12,9.0,ENE,21.9,27.6,0.00,,Overcast,60,2014-04-03 01:32:00
3:45 PM,71.6,71.6,100,30.11,4.0,NE,19.6,-,0.00,Rain,Light Rain,50,2014-04-03 01:45:00
3:53 PM,73.0,71.1,93,30.11,8.0,NE,17.3,-,0.00,,Overcast,50,2014-04-03 01:53:00
4:12 PM,73.4,71.6,94,30.12,8.0,NE,18.4,-,N/A,,Overcast,50,2014-04-03 02:12:00
4:32 PM,73.4,71.6,94,30.12,7.0,ENE,18.4,24.2,0.00,Rain,Light Rain,60,2014-04-03 02:32:00
4:53 PM,73.0,70.0,90,30.11,9.0,NE,19.6,28.8,0.00,,Overcast,50,2014-04-03 02:53:00
5:00 PM,73.4,69.8,88,30.12,2.5,ENE,21.9,32.2,0.00,Rain,Heavy Rain,60,2014-04-03 03:00:00
5:08 PM,71.6,69.8,94,30.12,2.5,ENE,21.9,27.6,0.00,Rain,Light Rain,60,2014-04-03 03:08:00
5:10 PM,71.6,69.8,94,30.12,5.0,NE,20.7,-,0.00,Rain,Light Rain,50,2014-04-03 03:10:00
5:15 PM,71.6,69.8,94,30.12,9.0,NE,18.4,-,0.01,,Overcast,50,2014-04-03 03:15:00
5:40 PM,73.4,71.6,94,30.12,8.0,NE,20.7,-,0.01,,Overcast,50,2014-04-03 03:40:00
5:43 PM,71.6,71.6,100,30.12,8.0,NE,20.7,26.5,0.01,,Overcast,50,2014-04-03 03:43:00
5:50 PM,71.6,69.8,94,30.12,2.0,ENE,19.6,28.8,0.01,Rain,Rain,60,2014-04-03 03:50:00
5:53 PM,72.0,70.0,93,30.12,3.0,NE,16.1,28.8,0.01,Rain,Light Rain,50,2014-04-03 03:53:00
6:04 PM,71.6,71.6,100,30.12,7.0,NE,17.3,-,0.01,,Overcast,50,2014-04-03 04:04:00
6:11 PM,71.6,71.6,100,30.13,6.0,ENE,21.9,28.8,0.01,,Overcast,60,2014-04-03 04:11:00
6:53 PM,73.0,70.0,90,30.13,7.0,NE,21.9,-,0.01,,Overcast,50,2014-04-03 04:53:00
7:34 PM,73.4,69.8,88,30.15,10.0,ENE,20.7,27.6,N/A,,Mostly Cloudy,60,2014-04-03 05:34:00
7:49 PM,73.4,69.8,88,30.15,10.0,NE,18.4,26.5,N/A,,Mostly Cloudy,50,2014-04-03 05:49:00
7:53 PM,73.0,69.1,87,30.14,10.0,NE,17.3,-,N/A,,Mostly Cloudy,50,2014-04-03 05:53:00
8:53 PM,73.0,70.0,90,30.16,8.0,ENE,21.9,29.9,0.00,,Overcast,60,2014-04-03 06:53:00
9:03 PM,73.4,69.8,88,30.17,9.0,ENE,18.4,26.5,N/A,,Overcast,60,2014-04-03 07:03:00
9:44 PM,73.4,69.8,88,30.18,4.0,East,25.3,29.9,0.00,Rain,Light Rain,80,2014-04-03 07:44:00
9:51 PM,71.6,69.8,94,30.18,3.0,ENE,19.6,29.9,0.00,Rain,Light Rain,60,2014-04-03 07:51:00
9:53 PM,71.1,69.1,93,30.18,3.0,ENE,17.3,27.6,0.00,Rain,Light Rain,60,2014-04-03 07:53:00
10:05 PM,71.6,69.8,94,30.18,10.0,NE,19.6,-,0.00,,Overcast,50,2014-04-03 08:05:00
10:45 PM,71.6,69.8,94,30.19,5.0,East,18.4,-,0.00,Rain,Light Rain,80,2014-04-03 08:45:00
10:53 PM,71.1,70.0,96,30.18,3.0,ENE,18.4,-,0.00,Rain,Light Rain,60,2014-04-03 08:53:00
11:42 PM,73.4,69.8,88,30.18,9.0,ENE,21.9,29.9,0.00,,Overcast,60,2014-04-03 09:42:00
11:53 PM,73.0,69.1,87,30.18,9.0,ENE,21.9,31.1,0.00,,Overcast,60,2014-04-03 09:53:00